Hatteras, NC

3:53 PM EDT on May 25, 2017 (GMT -0400)
Mitchell

Weather History for KHSE - May, 2014

Change the Weather History Date:

Wednesday, May 7, 2014

  Actual Average Record
Temperature  
Mean Temperature 71 °F 65 °F  
Max Temperature 79 °F 71 °F 84 °F (1977)
Min Temperature 62 °F 58 °F 39 °F (1968)
Degree Days  
Heating Degree Days 0 2  
Month to date heating degree days 1 20  
Since 1 July heating degree days 2526 2554  
Cooling Degree Days 6 2  
Month to date cooling degree days 22 14  
Year to date cooling degree days 49 42  
Growing Degree Days 20 (Base 50)    
Moisture  
Dew Point 62 °F    
Average Humidity 72    
Maximum Humidity 90    
Minimum Humidity 54    
Precipitation  
Precipitation 0.00 in 0.12 in 2.14 in (1953)
Month to date precipitation 0.81 0.83  
Year to date precipitation 22.18 18.50  
Snow  
Snow 0.00 in - - ()
Month to date snowfall 0.0  
Since 1 July snowfall 5.7  
Snow Depth 0.00 in    
Sea Level Pressure  
Sea Level Pressure 30.15 in    
Wind  
Wind Speed 11 mph (SE)    
Max Wind Speed 16 mph    
Max Gust Speed 23 mph    
Visibility 10 miles    
Events      
T = Trace of Precipitation, MM = Missing Value Source: NWS Daily Summary

Daily Weather History Graph

Daily Weather History Graph

Search for Another Location

Airport or City:

Trip Planner

Search our weather history database for the weather conditions in past years. The results will help you decide how hot, cold, wet, or windy it might be!

Date:

Astronomy

May. 07, 2014 Rise Set
Actual Time 6:05 AM EDT 7:53 PM EDT
Civil Twilight 5:37 AM EDT 8:20 PM EDT
Nautical Twilight 5:04 AM EDT 8:54 PM EDT
Astronomical Twilight 4:29 AM EDT 9:29 PM EDT
Moon 1:11 PM EDT (5/7) 1:47 AM EDT (5/7)
Length of Visible Light 14h 43m
Length of Day
13h 48m
First Quarter, 55% of the Moon is Illuminated
May 7
First Quarter
May 14
Full
May 21
Last Quarter
May 28
New
Jun 5
First Quarter

Hourly Weather History & Observations

Time (EDT) Temp. Dew Point Humidity Pressure Visibility Wind Dir Wind Speed Gust Speed Precip Events Conditions
2:51 AM 62.1 °F 57.9 °F 86% 30.05 in 10.0 mi ENE 4.6 mph - N/A   Clear
3:51 AM 63.0 °F 59.0 °F 87% 30.06 in 10.0 mi ENE 4.6 mph - N/A   Clear
4:51 AM 64.0 °F 60.1 °F 87% 30.07 in 10.0 mi ENE 5.8 mph - N/A   Partly Cloudy
5:51 AM 66.9 °F 61.0 °F 81% 30.08 in 10.0 mi ESE 11.5 mph - N/A   Scattered Clouds
6:51 AM 69.1 °F 60.1 °F 73% 30.12 in 10.0 mi ESE 12.7 mph - N/A   Clear
7:51 AM 71.1 °F 60.1 °F 68% 30.14 in 10.0 mi ESE 12.7 mph - N/A   Partly Cloudy
8:51 AM 73.0 °F 60.1 °F 64% 30.16 in 10.0 mi SE 12.7 mph - N/A   Clear
9:51 AM 75.9 °F 60.1 °F 58% 30.17 in 10.0 mi SE 11.5 mph - N/A   Mostly Cloudy
10:51 AM 78.1 °F 60.1 °F 54% 30.18 in 10.0 mi SE 12.7 mph - N/A   Clear
11:51 AM 77.0 °F 61.0 °F 58% 30.19 in 10.0 mi SE 12.7 mph - N/A   Mostly Cloudy
12:51 PM 77.0 °F 62.1 °F 60% 30.18 in 10.0 mi SE 13.8 mph - N/A   Scattered Clouds
1:51 PM 75.9 °F 62.1 °F 62% 30.19 in 10.0 mi SE 12.7 mph - N/A   Overcast
2:51 PM 78.1 °F 63.0 °F 60% 30.18 in 10.0 mi SE 13.8 mph 20.7 mph N/A   Mostly Cloudy
3:07 PM 75.9 °F 63.0 °F 64% 30.17 in 10.0 mi SE 13.8 mph - N/A   Overcast
3:33 PM 75.9 °F 63.0 °F 64% 30.17 in 10.0 mi SE 12.7 mph - N/A   Overcast
3:51 PM 73.9 °F 63.0 °F 68% 30.17 in 10.0 mi SE 12.7 mph - N/A   Overcast
4:08 PM 73.9 °F 63.0 °F 68% 30.17 in 10.0 mi SSE 13.8 mph 19.6 mph N/A   Overcast
4:35 PM 73.0 °F 63.0 °F 71% 30.16 in 10.0 mi SSE 13.8 mph - N/A   Overcast
5:51 PM 72.0 °F 64.0 °F 76% 30.15 in 10.0 mi SSE 11.5 mph - N/A   Overcast
6:51 PM 72.0 °F 64.0 °F 76% 30.16 in 10.0 mi SE 12.7 mph - N/A   Overcast
7:51 PM 72.0 °F 64.9 °F 78% 30.16 in 9.0 mi SSE 12.7 mph - N/A   Overcast
8:51 PM 71.1 °F 66.0 °F 84% 30.16 in 10.0 mi SSE 13.8 mph - N/A   Overcast
9:51 PM 71.1 °F 66.0 °F 84% 30.17 in 9.0 mi SSE 13.8 mph - N/A   Mostly Cloudy
10:51 PM 71.1 °F 66.0 °F 84% 30.17 in 8.0 mi SSE 11.5 mph - N/A   Overcast
11:51 PM 71.1 °F 66.9 °F 87% 30.16 in 8.0 mi SSE 13.8 mph - N/A   Overcast